Weather History for Billings, MT

Change the Weather History Date:

Tuesday, June 19, 2012

  Actual Average Record
Temperature  
Mean Temperature 63 °F 66 °F  
Max Temperature 75 °F 78 °F 100 °F (1989)
Min Temperature 50 °F 53 °F 42 °F (1946)
Degree Days  
Heating Degree Days 2 2  
Month to date heating degree days 32 77  
Since 1 June heating degree days 32 77  
Since 1 July heating degree days 5863 6763  
Cooling Degree Days 0 3  
Month to date cooling degree days 48 37  
Year to date cooling degree days 82 54  
Since 1 June cooling degree days 48 37  
Growing Degree Days 12 (Base 50)    
Moisture  
Dew Point 34 °F    
Average Humidity 40    
Maximum Humidity 63    
Minimum Humidity 17    
Precipitation  
Precipitation T in 0.07 in 1.46 in (1991)
Month to date precipitation 0.21 1.43  
Year to date precipitation 4.36 7.29  
Snow  
Snow 0.00 in 0.00 in T in (1991)
Month to date snowfall T 0.0  
Since 1 June snowfall T 0.0  
Since 1 July snowfall 38.6 55.0  
Snow Depth 0.00 in    
Sea Level Pressure  
Sea Level Pressure 29.78 in    
Wind  
Wind Speed 9 mph (WNW)    
Max Wind Speed 22 mph    
Max Gust Speed 32 mph    
Visibility 10 miles    
Events      
T = Trace of Precipitation, MM = Missing Value Source: NWS Daily Summary

Daily Weather History Graph

Daily Weather History Graph

Search for Another Location

Airport:

Trip Planner

Search our weather history database for the weather conditions in past years. The results will help you decide how hot, cold, wet, or windy it might be!

Date:

Astronomy

Jun. 19, 2012 Rise Set
Actual Time 5:23 AM MDT 9:07 PM MDT
Civil Twilight 4:45 AM MDT 9:45 PM MDT
Nautical Twilight 3:53 AM MDT 10:37 PM MDT
Astronomical Twilight 2:42 AM MDT 11:48 PM MDT
Moon 5:33 AM MDT (6/19) 9:10 PM MDT (6/19)
Length of Visible Light 17h 00m
Length of Day
15h 43m
New Moon, 0% of the Moon is Illuminated
Jun 19
New Moon
Jun 26
First Quarter
Jul 3
Full
Jul 10
Last Quarter
Jul 18
New

Hourly Weather History & Observations

Time (MDT) Temp. Dew Point Humidity Pressure Visibility Wind Dir Wind Speed Gust Speed Precip Events Conditions
12:53 AM 53.1 °F 39.9 °F 61% 29.70 in 10.0 mi NNW 20.7 mph 27.6 mph N/A   Mostly Cloudy
1:53 AM 52.0 °F 39.9 °F 63% 29.71 in 10.0 mi NNW 15.0 mph - N/A   Overcast
2:53 AM 52.0 °F 39.9 °F 63% 29.73 in 10.0 mi NNW 4.6 mph - N/A   Overcast
3:53 AM 52.0 °F 39.0 °F 61% 29.73 in 10.0 mi West 3.5 mph - N/A   Overcast
4:53 AM 52.0 °F 39.0 °F 61% 29.74 in 10.0 mi West 4.6 mph - N/A   Mostly Cloudy
5:53 AM 52.0 °F 39.0 °F 61% 29.75 in 10.0 mi SSW 5.8 mph - N/A   Mostly Cloudy
6:53 AM 50.0 °F 37.0 °F 61% 29.77 in 10.0 mi WNW 5.8 mph - N/A   Scattered Clouds
7:53 AM 55.9 °F 36.0 °F 47% 29.78 in 10.0 mi WSW 10.4 mph - N/A   Partly Cloudy
8:53 AM 59.0 °F 34.0 °F 39% 29.78 in 10.0 mi WSW 9.2 mph - N/A   Partly Cloudy
9:53 AM 60.1 °F 32.0 °F 35% 29.78 in 10.0 mi Variable 4.6 mph - N/A   Partly Cloudy
10:53 AM 64.0 °F 32.0 °F 30% 29.77 in 10.0 mi Variable 6.9 mph 19.6 mph N/A   Partly Cloudy
11:53 AM 66.9 °F 28.9 °F 24% 29.76 in 10.0 mi West 10.4 mph 19.6 mph N/A   Partly Cloudy
12:53 PM 68.0 °F 28.0 °F 22% 29.75 in 10.0 mi NW 13.8 mph 20.7 mph N/A   Scattered Clouds
1:53 PM 72.0 °F 27.0 °F 19% 29.74 in 10.0 mi West 13.8 mph 25.3 mph N/A   Scattered Clouds
2:53 PM 71.1 °F 27.0 °F 19% 29.73 in 10.0 mi NNW 13.8 mph 24.2 mph N/A   Scattered Clouds
3:53 PM 72.0 °F 24.1 °F 17% 29.73 in 10.0 mi NW 12.7 mph 23.0 mph N/A   Scattered Clouds
4:53 PM 73.4 °F 26.6 °F 18% 29.80 in 10.0 mi NW 13.8 mph 19.6 mph N/A   Scattered Clouds
5:53 PM 70.0 °F 28.0 °F 21% 29.75 in 10.0 mi NNW 11.5 mph - N/A   Scattered Clouds
6:53 PM 66.9 °F 30.0 °F 25% 29.78 in 10.0 mi West 10.4 mph 19.6 mph N/A   Mostly Cloudy
7:53 PM 66.0 °F 32.0 °F 28% 29.80 in 10.0 mi West 5.8 mph - N/A   Scattered Clouds
8:53 PM 64.9 °F 34.0 °F 32% 29.83 in 10.0 mi NNW 15.0 mph - N/A   Mostly Cloudy
9:53 PM 60.8 °F 37.4 °F 42% 29.93 in 10.0 mi North 12.7 mph - N/A   Scattered Clouds
10:53 PM 57.9 °F 39.0 °F 49% 29.91 in 10.0 mi East 4.6 mph - N/A   Mostly Cloudy
11:53 PM 57.0 °F 39.9 °F 53% 29.92 in 10.0 mi NE 3.5 mph - 0.00 in   Mostly Cloudy